Regional Weather Roundup
Issued by NWS

Home | Current Version | Previous Version | Graphics & Text | Print | Product List | Glossary On
Versions: 1 2 3 4 5 6 7 8 9 10 11 12 13 14 15 16 17 18 19 20 21 22 23 24 25 26 27 28 29 30 31 32 33 34 35 36 37 38 39 40 41 42 43 44 45 46 47 48 49 50
000
ASUS43 KFSD 062310
RWRSD

WEATHER ROUNDUP FOR SOUTH DAKOTA
NATIONAL WEATHER SERVICE SIOUX FALLS SD
600 PM CDT MON JUL 06 2015

NOTE: "FAIR" INDICATES FEW OR NO CLOUDS BELOW 12,000 FEET WITH NO
SIGNIFICANT WEATHER AND/OR OBSTRUCTIONS TO VISIBILITY.


SDZ001>005-009-010-012>017-070000-
NORTHWEST AND NORTH CENTRAL SOUTH DAKOTA

CITY           SKY/WX    TMP DP  RH WIND       PRES   REMARKS
BUFFALO          N/A     72  46  39 NW12      30.13F
FAITH            N/A     70  51  51 VRB3      30.17F
MOBRIDGE       PTSUNNY   76  53  44 N8        30.11F
$$

SDZ012>016-024>037-041>051-057-063-072>074-070000-
SOUTHWEST AND SOUTH CENTRAL SOUTH DAKOTA

CITY           SKY/WX    TMP DP  RH WIND       PRES   REMARKS
RAPID CTY ARPT CLOUDY    70  53  54 N7        30.20F
PIERRE         SUNNY     75  54  47 N14       30.11F
CUSTER         CLOUDY    57  51  80 E9        30.29S HAZE
ELLSWORTH AFB  MOSUNNY   70  52  53 N3        30.19F
PHILIP         MOSUNNY   77  55  46 N8        30.15F
PINE RIDGE     MOSUNNY   70  52  52 N7        30.20F
SPEARFISH      FAIR      66  54  63 NW7       30.24F
WINNER         FAIR      76  52  43 N20G26    30.12F
$$

SDZ004>011-016>023-039-040-070000-
NORTHEAST SOUTH DAKOTA

CITY           SKY/WX    TMP DP  RH WIND       PRES   REMARKS
ABERDEEN       MOSUNNY   73  54  51 N15       30.10S HAZE
WATERTOWN      MOSUNNY   69  52  54 N15       30.09S
BROOKINGS      MOSUNNY   70  54  56 N21       30.08S
SISSETON         N/A     68  49  50 N16       30.08S
$$

SDZ017-020-022-023-036>040-048>070-070000-
SOUTHEAST SOUTH DAKOTA

CITY           SKY/WX    TMP DP  RH WIND       PRES   REMARKS
SIOUX FALLS    PTSUNNY   73  58  59 N16G28    30.03S SMOKE
HURON          SUNNY     72  54  53 N13G23    30.08F HAZE
CHAMBERLAIN    MOSUNNY   74  53  47 N10G16    30.10F
MITCHELL       SUNNY     73  55  53 N20G26    30.08S HAZE
YANKTON        MOSUNNY   73  57  56 N17       30.02R
$$

ABBREVIATIONS USED IN REMARKS
   TC - TEMPERATURE IN CELSIUS
  WCI - WIND CHILL INDEX
   HX - HEAT INDEX
  VSB - VISIBILITY



USA.gov is the U.S. government's official web portal to all federal, state and local government web resources and services.